Location: Nitra
(0.0000°N, 18.0833°E)
Time: 23:44:25
(UTC+02:00)

KAITUO 1B - Pass Details

Date: 19 June 2023
Orbit: 398 x 411 km, 97.4° (Epoch: 24 September)

Event Time Altitude Azimuth Distance (km) Brightness Sun altitude
Rises 19:29:10 0° 170° (S) 2,468 ? -9.2°
Reaches altitude 10° 19:31:15 10° 171° (S) 1,574 ? -9.7°
Maximum altitude 19:34:37 83° 259° (W) 443 ? -10.4°
Drops below altitude 10° 19:37:50 10° 347° (NNW) 1,510 ? -11.2°
Sets 19:39:48 0° 348° (NNW) 2,355 ? -11.6°
